Time,TemperatureF,DewpointF,PressureIn,WindDirection,WindDirectionDegrees,WindSpeedMPH,WindSpeedGustMPH,Humidity,HourlyPrecipIn,Conditions,Clouds,dailyrainin,SoftwareType,DateUTC
2013-03-19 07:02:00,6.0,0.0,29.89,NW,305,3.0,11.0,76,0.00,,,0.00,,2013-03-19 12:02:00,
2013-03-19 07:12:00,6.0,0.0,29.89,NW,305,3.0,11.0,76,0.00,,,0.00,,2013-03-19 12:12:00,
2013-03-19 07:22:00,6.0,0.0,29.90,WNW,288,5.0,13.0,76,0.00,,,0.00,,2013-03-19 12:22:00,
2013-03-19 07:33:00,6.0,0.0,29.91,NW,321,4.0,10.0,76,0.00,,,0.00,,2013-03-19 12:33:00,
2013-03-19 07:42:00,6.0,0.0,29.91,NW,321,4.0,10.0,76,0.00,,,0.00,,2013-03-19 12:42:00,
2013-03-19 07:52:00,6.0,0.0,29.92,WNW,302,5.0,13.0,76,0.00,,,0.00,,2013-03-19 12:52:00,
2013-03-19 08:02:00,6.0,0.0,29.93,NW,311,4.0,12.0,75,0.00,,,0.00,,2013-03-19 13:02:00,
2013-03-19 08:12:00,6.0,0.0,29.93,NW,311,4.0,12.0,75,0.00,,,0.00,,2013-03-19 13:12:00,
2013-03-19 08:22:00,6.0,0.0,29.93,North,356,2.0,11.0,75,0.00,,,0.00,,2013-03-19 13:22:00,
2013-03-19 08:32:00,7.0,0.0,29.94,NW,307,6.0,15.0,74,0.00,,,0.00,,2013-03-19 13:32:00,
2013-03-19 08:42:00,7.0,0.0,29.94,NW,307,6.0,15.0,74,0.00,,,0.00,,2013-03-19 13:42:00,
2013-03-19 08:53:00,7.0,0.0,29.94,NNW,334,4.0,11.0,73,0.00,,,0.00,,2013-03-19 13:53:00,
2013-03-19 09:02:00,8.0,1.0,29.95,NNW,333,4.0,10.0,72,0.00,,,0.00,,2013-03-19 14:02:00,
2013-03-19 09:12:00,8.0,1.0,29.95,NNW,333,4.0,10.0,72,0.00,,,0.00,,2013-03-19 14:12:00,
2013-03-19 09:22:00,9.0,1.0,29.96,NW,325,4.0,9.0,70,0.00,,,0.00,,2013-03-19 14:22:00,
2013-03-19 09:32:00,9.0,1.0,29.96,NNE,17,4.0,13.0,69,0.00,,,0.00,,2013-03-19 14:32:00,
2013-03-19 09:42:00,9.0,1.0,29.96,NNE,17,4.0,13.0,69,0.00,,,0.00,,2013-03-19 14:42:00,
2013-03-19 09:52:00,10.0,2.0,29.96,WNW,302,3.0,13.0,69,0.00,,,0.00,,2013-03-19 14:52:00,
2013-03-19 10:02:00,10.0,2.0,29.96,WNW,302,3.0,13.0,69,0.00,,,0.00,,2013-03-19 15:02:00,
2013-03-19 10:12:00,10.0,2.0,29.96,WNW,302,3.0,13.0,69,0.00,,,0.00,,2013-03-19 15:12:00,
2013-03-19 10:22:00,10.0,2.0,29.96,WNW,302,3.0,13.0,69,0.00,,,0.00,,2013-03-19 15:22:00,
2013-03-19 11:04:00,13.0,3.0,29.99,NW,311,5.0,13.0,63,0.00,,,0.00,,2013-03-19 16:04:00,
2013-03-19 11:13:00,13.0,3.0,29.99,NW,311,5.0,13.0,63,0.00,,,0.00,,2013-03-19 16:13:00,
2013-03-19 11:24:00,14.0,4.0,30.00,SW,226,2.0,10.0,63,0.00,,,0.00,,2013-03-19 16:24:00,
2013-03-19 11:34:00,14.0,3.0,30.00,West,273,7.0,14.0,61,0.00,,,0.00,,2013-03-19 16:34:00,
2013-03-19 11:44:00,14.0,3.0,30.00,West,273,7.0,14.0,61,0.00,,,0.00,,2013-03-19 16:44:00,
2013-03-19 11:54:00,14.0,3.0,30.00,North,8,5.0,13.0,60,0.00,,,0.00,,2013-03-19 16:54:00,
2013-03-19 12:03:00,15.0,3.0,30.00,WNW,291,6.0,14.0,59,0.00,,,0.00,,2013-03-19 17:03:00,
2013-03-19 12:13:00,15.0,3.0,30.00,WNW,291,6.0,14.0,59,0.00,,,0.00,,2013-03-19 17:13:00,
2013-03-19 12:23:00,15.0,3.0,30.00,NW,311,6.0,16.0,58,0.00,,,0.00,,2013-03-19 17:23:00,
2013-03-19 12:34:00,16.0,4.0,30.01,NW,326,7.0,14.0,58,0.00,,,0.00,,2013-03-19 17:34:00,
2013-03-19 12:44:00,16.0,4.0,30.01,NW,326,7.0,14.0,58,0.00,,,0.00,,2013-03-19 17:44:00,
2013-03-19 12:53:00,17.0,4.0,30.01,WNW,298,5.0,13.0,57,0.00,,,0.00,,2013-03-19 17:53:00,
2013-03-19 13:03:00,18.0,5.0,30.01,NNW,333,6.0,17.0,56,0.00,,,0.00,,2013-03-19 18:03:00,
2013-03-19 13:13:00,18.0,5.0,30.01,NNW,333,6.0,17.0,56,0.00,,,0.00,,2013-03-19 18:13:00,
2013-03-19 13:23:00,19.0,6.0,30.01,NNW,335,4.0,12.0,55,0.00,,,0.00,,2013-03-19 18:23:00,
2013-03-19 13:33:00,19.0,5.0,30.01,West,278,4.0,16.0,54,0.00,,,0.00,,2013-03-19 18:33:00,
2013-03-19 13:43:00,19.0,5.0,30.01,West,278,4.0,16.0,54,0.00,,,0.00,,2013-03-19 18:43:00,
2013-03-19 13:53:00,19.0,6.0,30.01,NNW,335,5.0,17.0,55,0.00,,,0.00,,2013-03-19 18:53:00,
2013-03-19 14:02:00,20.0,6.0,30.01,NW,310,5.0,11.0,53,0.00,,,0.00,,2013-03-19 19:02:00,
2013-03-19 14:12:00,20.0,6.0,30.01,NW,310,5.0,11.0,53,0.00,,,0.00,,2013-03-19 19:12:00,
2013-03-19 14:22:00,21.0,6.0,30.01,NW,321,4.0,12.0,52,0.00,,,0.00,,2013-03-19 19:22:00,
2013-03-19 14:32:00,21.0,6.0,30.01,NNE,27,5.0,16.0,52,0.00,,,0.00,,2013-03-19 19:32:00,
2013-03-19 14:42:00,21.0,6.0,30.01,NNE,27,5.0,16.0,52,0.00,,,0.00,,2013-03-19 19:42:00,
2013-03-19 14:53:00,22.0,7.0,30.01,North,360,5.0,14.0,51,0.00,,,0.00,,2013-03-19 19:53:00,
2013-03-19 15:02:00,22.0,7.0,30.02,ENE,77,4.0,12.0,52,0.00,,,0.00,,2013-03-19 20:02:00,
2013-03-19 15:12:00,22.0,7.0,30.02,ENE,77,4.0,12.0,52,0.00,,,0.00,,2013-03-19 20:12:00,
2013-03-19 15:22:00,22.0,6.0,30.02,NW,308,6.0,14.0,50,0.00,,,0.00,,2013-03-19 20:22:00,
2013-03-19 15:32:00,22.0,6.0,30.02,WNW,290,7.0,14.0,50,0.00,,,0.00,,2013-03-19 20:32:00,
2013-03-19 15:42:00,22.0,6.0,30.02,WNW,290,7.0,14.0,50,0.00,,,0.00,,2013-03-19 20:42:00,
2013-03-19 15:53:00,22.0,6.0,30.02,WNW,290,7.0,14.0,50,0.00,,,0.00,,2013-03-19 20:53:00,
2013-03-19 16:02:00,22.0,6.0,30.02,WNW,290,7.0,14.0,50,0.00,,,0.00,,2013-03-19 21:02:00,
2013-03-19 17:34:00,20.0,2.0,30.05,NW,316,8.0,21.0,45,0.00,,,0.00,,2013-03-19 22:34:00,
2013-03-19 17:44:00,20.0,2.0,30.05,NW,316,8.0,21.0,45,0.00,,,0.00,,2013-03-19 22:44:00,
2013-03-19 17:53:00,19.0,1.0,30.06,NNW,335,8.0,21.0,45,0.00,,,0.00,,2013-03-19 22:53:00,
2013-03-19 18:02:00,18.0,1.0,30.07,NW,325,5.0,19.0,47,0.00,,,0.00,,2013-03-19 23:02:00,
2013-03-19 18:12:00,18.0,1.0,30.07,NW,325,5.0,19.0,47,0.00,,,0.00,,2013-03-19 23:12:00,
2013-03-19 18:22:00,18.0,2.0,30.07,NW,319,6.0,17.0,48,0.00,,,0.00,,2013-03-19 23:22:00,
2013-03-19 18:32:00,18.0,2.0,30.08,WNW,290,6.0,16.0,49,0.00,,,0.00,,2013-03-19 23:32:00,
2013-03-19 18:42:00,18.0,2.0,30.08,WNW,290,6.0,16.0,49,0.00,,,0.00,,2013-03-19 23:42:00,
2013-03-19 18:52:00,17.0,2.0,30.09,North,352,6.0,19.0,50,0.00,,,0.00,,2013-03-19 23:52:00,
2013-03-19 19:02:00,16.0,1.0,30.09,NNE,22,6.0,15.0,51,0.00,,,0.00,,2013-03-20 00:02:00,
2013-03-19 19:13:00,16.0,1.0,30.09,NNE,22,6.0,15.0,51,0.00,,,0.00,,2013-03-20 00:13:00,
2013-03-19 19:22:00,15.0,1.0,30.10,NW,323,5.0,13.0,53,0.00,,,0.00,,2013-03-20 00:22:00,
2013-03-19 19:33:00,14.0,0.0,30.10,WNW,293,3.0,11.0,52,0.00,,,0.00,,2013-03-20 00:33:00,
2013-03-19 19:42:00,14.0,0.0,30.10,WNW,293,3.0,11.0,52,0.00,,,0.00,,2013-03-20 00:42:00,
2013-03-19 19:52:00,13.0,-1.0,30.11,NW,326,5.0,12.0,53,0.00,,,0.00,,2013-03-20 00:52:00,
2013-03-19 20:03:00,13.0,0.0,30.11,NW,312,6.0,13.0,55,0.00,,,0.00,,2013-03-20 01:03:00,
2013-03-19 20:12:00,13.0,0.0,30.11,NW,312,6.0,13.0,55,0.00,,,0.00,,2013-03-20 01:12:00,
2013-03-19 20:22:00,12.0,0.0,30.12,NNW,342,4.0,11.0,57,0.00,,,0.00,,2013-03-20 01:22:00,
2013-03-19 20:32:00,12.0,0.0,30.12,WNW,285,3.0,10.0,57,0.00,,,0.00,,2013-03-20 01:32:00,
2013-03-19 20:42:00,12.0,0.0,30.12,WNW,285,3.0,10.0,57,0.00,,,0.00,,2013-03-20 01:42:00,
2013-03-19 20:53:00,11.0,0.0,30.13,NNW,337,4.0,11.0,59,0.00,,,0.00,,2013-03-20 01:53:00,
2013-03-19 21:02:00,11.0,0.0,30.13,NNW,334,4.0,13.0,60,0.00,,,0.00,,2013-03-20 02:02:00,
2013-03-19 21:12:00,11.0,0.0,30.13,NNW,334,4.0,13.0,60,0.00,,,0.00,,2013-03-20 02:12:00,
2013-03-19 21:22:00,10.0,-1.0,30.13,NW,323,4.0,11.0,60,0.00,,,0.00,,2013-03-20 02:22:00,
2013-03-19 21:32:00,10.0,-1.0,30.13,NW,304,4.0,18.0,60,0.00,,,0.00,,2013-03-20 02:32:00,
2013-03-19 21:42:00,10.0,-1.0,30.13,NW,304,4.0,18.0,60,0.00,,,0.00,,2013-03-20 02:42:00,
2013-03-19 21:53:00,9.0,-2.0,30.13,NE,39,5.0,10.0,60,0.00,,,0.00,,2013-03-20 02:53:00,
2013-03-19 22:02:00,9.0,-2.0,30.13,WNW,294,5.0,13.0,61,0.00,,,0.00,,2013-03-20 03:02:00,
2013-03-19 22:12:00,9.0,-2.0,30.13,NW,323,5.0,14.0,61,0.00,,,0.00,,2013-03-20 03:12:00,
2013-03-19 22:22:00,9.0,-2.0,30.13,NW,323,5.0,14.0,61,0.00,,,0.00,,2013-03-20 03:22:00,
2013-03-19 22:33:00,9.0,-2.0,30.13,NW,323,6.0,12.0,61,0.00,,,0.00,,2013-03-20 03:33:00,
2013-03-19 22:42:00,9.0,-2.0,30.13,NW,323,6.0,12.0,61,0.00,,,0.00,,2013-03-20 03:42:00,
2013-03-19 22:53:00,8.0,-3.0,30.13,NW,309,3.0,12.0,61,0.00,,,0.00,,2013-03-20 03:53:00,
2013-03-19 23:03:00,8.0,-2.0,30.14,WNW,300,4.0,9.0,62,0.00,,,0.00,,2013-03-20 04:03:00,
2013-03-19 23:12:00,8.0,-2.0,30.14,WNW,300,4.0,9.0,62,0.00,,,0.00,,2013-03-20 04:12:00,
2013-03-19 23:23:00,8.0,-2.0,30.14,WNW,300,4.0,9.0,62,0.00,,,0.00,,2013-03-20 04:23:00,
2013-03-19 23:32:00,8.0,-2.0,30.14,WNW,300,4.0,9.0,62,0.00,,,0.00,,2013-03-20 04:32:00,
2013-03-19 23:43:00,8.0,-2.0,30.14,WNW,300,4.0,9.0,62,0.00,,,0.00,,2013-03-20 04:43:00,